Barking Sands, HI

8:54 AM HST on June 26, 2017 (GMT -1000)
Barking Sands PMRF

Weather History for PHBK - February, 2012

Change the Weather History Date:

Wednesday, February 22, 2012

  Actual Average Record
Temperature  
Mean Temperature 73 °F -  
Max Temperature 80 °F 80 °F 85 °F (1977)
Min Temperature 66 °F 60 °F 32 °F (2011)
Cooling Degree Days 8    
Growing Degree Days 23 (Base 50)    
Moisture  
Dew Point 63 °F    
Average Humidity 69    
Maximum Humidity 81    
Minimum Humidity 58    
Precipitation  
Precipitation 0.00 in - - ()
Sea Level Pressure  
Sea Level Pressure 30.08 in    
Wind  
Wind Speed 5 mph (ENE)    
Max Wind Speed 10 mph    
Max Gust Speed -    
Visibility 10 miles    
Events      
Averages and records for this station are not official NWS values.
T = Trace of Precipitation, MM = Missing Value Source: NWS Daily Summary

Daily Weather History Graph

Daily Weather History Graph

Search for Another Location

Airport or City:

Trip Planner

Search our weather history database for the weather conditions in past years. The results will help you decide how hot, cold, wet, or windy it might be!

Date:

Astronomy

Feb. 22, 2012 Rise Set
Actual Time 7:05 AM HST 6:39 PM HST
Civil Twilight 6:43 AM HST 7:02 PM HST
Nautical Twilight 6:17 AM HST 7:28 PM HST
Astronomical Twilight 5:51 AM HST 7:54 PM HST
Moon 7:22 AM HST (2/22) 7:40 PM HST (2/22)
Length of Visible Light 12h 19m
Length of Day
11h 34m
New Moon, 1% of the Moon is Illuminated
Feb 22
New Moon
Feb 29
First Quarter
Mar 7
Full
Mar 14
Last Quarter
Mar 22
New

Hourly Weather History & Observations

Time (HST) Temp. Heat Index Dew Point Humidity Pressure Visibility Wind Dir Wind Speed Gust Speed Precip Events Conditions
12:56 AM 68.0 °F - 61.0 °F 78% 30.12 in 10.0 mi ESE 3.5 mph - N/A   Clear
1:56 AM 70.0 °F - 61.0 °F 73% 30.10 in 10.0 mi ESE 3.5 mph - N/A   Clear
2:56 AM 66.9 °F - 61.0 °F 81% 30.09 in 10.0 mi ESE 3.5 mph - N/A   Clear
3:56 AM 68.0 °F - 61.0 °F 78% 30.07 in 10.0 mi ESE 3.5 mph - N/A   Clear
4:56 AM 68.0 °F - 61.0 °F 78% 30.07 in 10.0 mi East 4.6 mph - N/A   Clear
5:56 AM 68.0 °F - 62.1 °F 81% 30.08 in 10.0 mi ENE 5.8 mph - N/A   Clear
6:56 AM 68.0 °F - 61.0 °F 78% 30.09 in 10.0 mi ESE 4.6 mph - N/A   Clear
7:56 AM 69.1 °F - 61.0 °F 75% 30.10 in 10.0 mi ESE 3.5 mph - N/A   Clear
8:00 AM 69.8 °F - 60.8 °F 73% 30.09 in - ESE 3.5 mph - N/A   Haze
8:14 AM 71.6 °F - 62.6 °F 73% 30.09 in 10.0 mi Calm Calm - N/A   Clear
8:56 AM 75.9 °F - 63.0 °F 64% 30.11 in 10.0 mi Calm Calm - N/A   Clear
9:56 AM 79.0 °F - 64.9 °F 62% 30.12 in 10.0 mi North 8.1 mph - N/A   Clear
10:56 AM 78.1 °F - 64.9 °F 64% 30.12 in 10.0 mi NNW 9.2 mph - N/A   Clear
11:56 AM 79.0 °F - 64.9 °F 62% 30.11 in 10.0 mi NNW 10.4 mph - N/A   Clear
12:56 PM 80.1 °F 81.9 °F 64.9 °F 60% 30.07 in 10.0 mi NW 10.4 mph - N/A   Clear
1:56 PM 80.1 °F 81.9 °F 64.9 °F 60% 30.06 in 10.0 mi NW 9.2 mph - N/A   Partly Cloudy
2:56 PM 79.0 °F - 63.0 °F 58% 30.04 in 10.0 mi NW 9.2 mph - N/A   Clear
3:56 PM 79.0 °F - 63.0 °F 58% 30.02 in 10.0 mi WSW 5.8 mph - N/A   Partly Cloudy
4:56 PM 79.0 °F - 63.0 °F 58% 30.02 in 10.0 mi WSW 8.1 mph - N/A   Mostly Cloudy
5:56 PM 78.1 °F - 64.0 °F 62% 30.02 in 10.0 mi WNW 6.9 mph - N/A   Partly Cloudy
6:56 PM 78.1 °F - 64.9 °F 64% 30.05 in 10.0 mi NNW 6.9 mph - N/A   Overcast
7:56 PM 77.0 °F - 64.9 °F 66% 30.06 in 10.0 mi NNW 5.8 mph - N/A   Mostly Cloudy
8:56 PM 73.9 °F - 64.0 °F 71% 30.07 in 10.0 mi SSE 4.6 mph - N/A   Overcast
9:56 PM 73.9 °F - 64.0 °F 71% 30.09 in 10.0 mi SE 5.8 mph - N/A   Overcast
10:56 PM 72.0 °F - 64.0 °F 76% 30.08 in 10.0 mi ENE 3.5 mph - N/A   Mostly Cloudy
11:56 PM 71.1 °F - 64.9 °F 81% 30.08 in 10.0 mi SSE 3.5 mph - N/A   Partly Cloudy